Location: Ostrava
(49.8330°N, 18.2830°E)
Time: 09:08:20
(UTC+01:00)

NOAA 19 - Visible Passes

Search period start: 24 March 2017 00:00
Search period end: 03 April 2017 01:00
Orbit: 841 x 862 km, 99.1° (Epoch: 22 March)

Date Brightness Start Highest point End Pass type
(mag) Time Alt. Az. Time Alt. Az. Time Alt. Az.
24 Mar 7.0 02:21:51 10° NE 02:26:24 26° E 02:29:21 17° SE visible
24 Mar 5.3 04:02:04 10° N 04:07:26 56° WNW 04:11:24 18° SW visible
25 Mar 7.3 02:10:41 10° NE 02:14:48 21° E 02:17:54 14° SE visible
25 Mar 5.2 03:50:33 10° N 03:56:00 68° WNW 03:59:56 19° SSW visible
26 Mar 7.5 01:59:38 10° NE 03:03:11 17° E 03:06:27 11° SE visible
26 Mar 5.1 04:39:03 10° NNE 04:44:33 82° WNW 04:48:29 20° SSW visible
27 Mar 7.7 02:48:47 10° NE 02:51:32 14° E 02:54:17 10° ESE visible
27 Mar 5.2 04:27:35 10° NNE 04:33:05 83° ESE 04:37:01 20° SSW visible
28 Mar 7.8 02:38:30 10° ENE 02:39:52 11° E 02:41:15 10° E visible
28 Mar 5.4 04:16:08 10° NNE 04:21:36 68° ESE 04:25:34 19° S visible
28 Mar 6.4 05:57:35 10° N 06:01:51 24° WNW 06:06:04 10° WSW visible
29 Mar 5.8 04:04:43 10° NNE 04:10:06 55° E 04:14:06 18° S visible
29 Mar 6.2 05:45:55 10° N 05:50:30 28° WNW 05:55:04 10° WSW visible
30 Mar 6.1 03:53:20 10° NNE 03:58:35 45° E 04:02:39 16° SSE visible
30 Mar 6.0 05:34:17 10° N 05:39:08 33° WNW 05:43:58 10° SW visible
31 Mar 6.5 03:41:59 10° NNE 03:47:02 37° E 03:51:11 14° SSE visible
31 Mar 5.7 05:22:41 10° N 05:27:46 40° WNW 05:32:49 10° SW visible
01 Apr 6.8 03:30:41 10° NE 03:35:28 30° E 03:39:43 12° SSE visible
01 Apr 5.5 05:11:07 10° N 05:16:22 48° WNW 05:21:35 10° SW visible
02 Apr 7.1 03:19:27 10° NE 03:23:53 25° E 03:28:15 10° SE visible
02 Apr 5.3 04:59:34 10° N 05:04:57 59° WNW 05:10:18 10° SSW visible
